Flag for U.S.A. Weather past 2 weeks in Shreveport, Louisiana, U.S.A.

Now
76 °F

Passing clouds.


Feels Like: 75 °F
Forecast: 76 / 96 °F
Wind: 5 mph from South

Location: Shreveport Regional Airport

Current Time: Aug 22, 2014 at 5:21:09 AM

Latest Report: Aug 22, 2014 at 4:56 AM


Visibility: 10 mi

Pressure: 30.05 "Hg

Humidity: 94%

Dew point: 74 °F

Location of ShreveportLocation

Historic Weather in Shreveport — Graph

°F

Shreveport temperature yesterday

Maximum temperature yesterday: 95 °F (at 2:56 PM)
Minimum temperature yesterday: 75 °F (at 12:56 AM)
Average temperature yesterday: 84 °F

Past Weeks' High & Low Weather Summary

 TemperatureHumidityPressure
High96 °F (Aug 16, 3:56 PM)94% (Aug 7, 5:56 AM)30.09 "Hg (Aug 7, 5:56 AM)
Low64 °F (Aug 15, 5:56 AM)33% (Aug 12, 3:56 PM)29.83 "Hg (Aug 7, 6:56 PM)
Average83 °F69%29.96 "Hg
* Reported Aug 7 3:56 AM — Aug 22 3:56 AM, Shreveport, Weather by CustomWeather, © 2014

Note: Actual official high and low records may vary slightly from our data, if they occured in-between our weather recording intervals... More about our weather records

Advertising

Shreveport weather history for previous 24 hours

 ConditionsComfort  
Time TempWeatherWind HumidityBarometerVisibility
3:56 AM
Aug 22
76 °FPassing clouds.3 mph94%30.03 "Hg10 mi
2:56 AM77 °FPassing clouds.3 mph94%30.03 "Hg10 mi
1:56 AM77 °FPassing clouds.6 mph94%30.03 "Hg10 mi
12:56 AM77 °FPassing clouds.6 mph90%30.03 "Hg10 mi
11:56 PM
Aug 21
79 °FPassing clouds.6 mph88%30.03 "Hg10 mi
10:56 PM81 °FPassing clouds.6 mph79%30.03 "Hg10 mi
9:56 PM83 °FPassing clouds.8 mph74%30.03 "Hg10 mi
8:56 PM86 °FPassing clouds.13 mph67%30.01 "Hg10 mi
7:56 PM90 °FPartly sunny.8 mph57%30.01 "Hg10 mi
6:56 PM93 °FPartly sunny.8 mph47%30.01 "Hg10 mi
5:56 PM95 °FScattered clouds.12 mph44%30.01 "Hg10 mi
4:56 PM95 °FScattered clouds.8 mph46%30.01 "Hg10 mi
3:56 PM95 °FScattered clouds.7 mph47%30.00 "Hg10 mi
2:56 PM95 °FScattered clouds.12 mph47%30.03 "Hg10 mi
1:56 PM94 °FScattered clouds.14 mph51%30.05 "Hg10 mi
12:56 PM92 °FScattered clouds.7 mph58%30.07 "Hg10 mi
11:56 AM88 °FScattered clouds.12 mph63%30.09 "Hg10 mi
10:56 AM87 °FScattered clouds.12 mph67%30.08 "Hg10 mi
9:56 AM85 °FPartly sunny.12 mph75%30.09 "Hg10 mi
8:56 AM80 °FScattered clouds.7 mph87%30.09 "Hg10 mi
7:56 AM78 °FLow clouds.6 mph90%30.08 "Hg10 mi
6:56 AM76 °FPassing clouds.5 mph94%30.06 "Hg10 mi
5:56 AM76 °FPartly cloudy.6 mph91%30.04 "Hg10 mi
Weather by CustomWeather, © 2014

See weather overviewHow to use our weather pages